LSZSLSME

Guest
Details From LSZS - Samedan
To LSME - Emmen
Flight Number -
Tags generated
Created
Modified
Stats Distance 73 nm / 135 km
Max Altitude 1,000 ft / 305 m
Waypoints 3
Social Downloads 0
Likes 0
Share VATSIM

Download

Looking for another format? Having issues loading an existing format? Contact us
Advertisement - Login to hide

Notes

Basic altitude profile: - Ascent Rate: 2500ft/min - Ascent Speed: 250kts - Cruise Altitude: 35000ft - Cruise Speed: 420kts - Descent Rate: 1500ft/min - Descent Speed: 250kts

Route

LSZS URIGI LSME

ID Type Via Altitude Latitude Longitude Leg Dist Tot Dist Heading (true) Name
O LSZS APT - 0 ft / 0 m 46.53421˚ 9.88394˚ - 0 nm - Samedan
URIGI FIX - 1,000 ft / 305 m 47.05889˚ 8.41361˚ 68 nm 68 nm 298° / 297° -
O LSME APT - 0 ft / 0 m 47.09237˚ 8.30512˚ 4 nm 73 nm 294° / 294° Emmen

Altitude Profile

Advertisement - Login to hide

LSZS

Details ICAO LSZS (SMV)
Name Samedan
Region Switzerland
Timezone Europe/Zurich (UTC+2.0)
Stats Elevation 5,600 ft / 1,707 m (AMSL)
Location 46.534207° 9.883938°
Runways 1
Magnetic Variation 2.708° E

METAR

LSZS 221550Z VRB01KT 9999 SCT024 BKN049 11/03 Q1016 RMK U

Decode

TAF

Not found

Departure Runways

ID Width Length Bearing (true) Bearing (mag) Surface Threshold Offset Overrun Length
03 131 ft / 40 m 6,059 ft / 1,847 m 29.10° 26.39° Asphalt 0 ft / 0 m 0 ft / 0 m
21 131 ft / 40 m 6,059 ft / 1,847 m 209.10° 206.39° Asphalt 361 ft / 110 m 0 ft / 0 m

LSME

Details ICAO LSME
Name Emmen
Region Switzerland
Timezone Europe/Zurich (UTC+2.0)
Stats Elevation 1,400 ft / 427 m (AMSL)
Location 47.092369° 8.305118°
Runways 1
Magnetic Variation 2.336° E

METAR

LSME 221550Z AUTO VRB02KT 9999NDV NCD 22/12 Q1011 RMK

Decode

TAF

TAF LSME 220925Z 2210/2316 VRB03KT 9999 FEW030 SCT150 TEMPO 2212/2303 SHRA SCT045TCU PROB40 TEMPO 2214/2223 24015G25KT 3000 TSRA SCT040CB PROB40 TEMPO 2303/2312 SHRA TEMPO 2312/2316 SHRA SCT040TCU PROB30 TEMPO 2312/2316 4000 TSRA SCT040CB

Decode

Destination Runways

ID Width Length Bearing (true) Bearing (mag) Surface Threshold Offset Overrun Length
04 130 ft / 40 m 8,202 ft / 2,500 m 37.49° 35.15° Asphalt 363 ft / 111 m 810 ft / 247 m
22 130 ft / 40 m 8,202 ft / 2,500 m 217.51° 215.17° Asphalt 596 ft / 182 m 747 ft / 228 m

Approach Navaids

Runway Type Ident Frequency Range Bearing (true) Bearing (mag) Slope Elevation
22 Localiser IEM 110.35 MHz 18 nm / 33 km 217.57° 215.23° - 1,400 ft / 427 m (AMSL)
22 Glidescope IEM 110.35 MHz 10 nm / 19 km 217.50° 215.16° 4.00° 1,406 ft / 429 m (AMSL)
22 DME IEM 110.35 MHz 18 nm / 33 km - - - 1,406 ft / 429 m (AMSL)

Popular Alternatives